Location: Pisa
(43.7170°N, 10.3830°E)
Time: 12:07:58
(UTC+02:00)

ISS - Pass Details

Date: 17 May 2021
Orbit: 417 x 422 km, 51.6° (Epoch: 21 June)

Event Time Altitude Azimuth Distance (km) Brightness Sun altitude
Rises 22:02:08 0° 247° (WSW) 2,355 0.4 -12.9°
Reaches altitude 10° 22:04:14 10° 252° (WSW) 1,495 -0.6 -13.2°
Maximum altitude 22:07:33 58° 332° (NNW) 494 -3.1 -13.6°
Drops below altitude 10° 22:10:53 10° 53° (NE) 1,504 -1.0 -14.0°
Sets 22:13:01 0° 57° (ENE) 2,372 0.0 -14.3°
